R/V Knorr Calliope CSV data file  (Time stamps are GMT)
Date, Time_GMT, Depth12, Depth35, Air_Temp, WXT5_Ta, WXT5_Pa, dec_lat, dec_lon, EDO_knt, GPS_COG, GPS_SOG, Gyro, IMET_BPR, IMET_SWR, WXT5_Ri, WXT5_Rc, HRH, WXT5_Ua, WXT5_Dm, WXT5_Sm, SBE45C, SBE45S, SBE45T, Salinity, SSCND, Fluorometer, SSTMP, SSV, Wnd_Dir, TWD_5, Wnd_Spd, TWS_5, HdChkSum=52
2008/03/27, 00:00:22, 4358.00, 0.00, 2.12, 2.90, 1007.0, 47.9541280, -42.1023900, , 37.90, 8.93, 52.20, 1007.14, 0.10, 0.1, 89.53, 72.35, 73.8, 305, 11.3, 43.54460, 35.87610, 14.6699, 35.8761, 43.5446, 96.10, 13.5974, 1503.19, 317.50, 322.7, 13.43, 8.9, 52
2008/03/27, 00:01:22, 4355.00, 0.00, 2.45, 2.90, 1007.6, 47.9561850, -42.0986550, , 38.40, 9.79, 50.80, 1007.60, 0.10, 0.0, 89.53, 72.93, 75.0, 283, 14.3, 43.54720, 35.87540, 14.6733, 35.8754, 43.5472, 95.20, 13.5940, 1503.18, 322.50, 312.5, 14.42, 14.4, 52
2008/03/27, 00:02:22, 4356.00, 0.00, 2.20, 2.90, 1007.0, 47.9582450, -42.0951070, , 63.60, 13.62, 54.10, 1008.37, 0.10, 0.0, 89.53, 72.63, 75.4, 279, 10.6, 43.54050, 35.87300, 14.6692, 35.8730, 43.5405, 97.00, 13.5894, 1503.16, 302.00, 289.1, 11.99, 11.1, 52
2008/03/27, 00:03:22, 4358.00, 0.00, 2.51, 2.90, 1006.9, 47.9602000, -42.0916070, , 62.00, 14.05, 53.40, 1007.73, -0.10, 0.1, 89.54, 74.12, 76.6, 281, 11.6, 43.54310, 35.87410, 14.6706, 35.8741, 43.5431, 94.80, 13.5842, 1503.14, 303.20, 300.9, 11.62, 12.3, 52
2008/03/27, 00:04:22, 4356.00, 0.00, 2.12, 2.90, 1008.0, 47.9623420, -42.0879680, , 39.80, 10.81, 50.20, 1008.15, -0.10, 0.0, 89.54, 72.93, 75.2, 272, 12.1, 43.53730, 35.87060, 14.6686, 35.8706, 43.5373, 96.40, 13.5751, 1503.11, 308.00, 296.7, 13.36, 14.6, 52
2008/03/27, 00:05:22, 4355.00, 0.00, 2.54, 3.00, 1007.3, 47.9645330, -42.0841670, , 43.70, 10.46, 53.50, 1007.87, 0.40, 0.1, 89.54, 74.80, 77.2, 283, 13.8, 43.53240, 35.87210, 14.6621, 35.8721, 43.5324, 94.00, 13.5662, 1503.08, 308.70, 310.3, 12.27, 14.6, 52
2008/03/27, 00:06:21, 4355.00, 0.00, 2.45, 3.00, 1007.6, 47.9665150, -42.0806650, , 44.80, 10.70, 52.80, 1007.44, 0.10, 0.0, 89.57, 74.63, 76.0, 289, 11.9, 43.52650, 35.87130, 14.6570, 35.8713, 43.5265, 93.60, 13.5557, 1503.05, 315.10, 311.9, 12.55, 10.8, 52
2008/03/27, 00:07:22, 4355.00, 0.00, 2.12, 2.80, 1007.4, 47.9687150, -42.0764680, , 67.10, 10.03, 52.70, 1007.70, -0.10, 0.2, 89.57, 72.78, 74.8, 290, 10.8, 43.51690, 35.86910, 14.6498, 35.8691, 43.5169, 93.30, 13.5461, 1503.01, 319.90, 315.9, 12.53, 9.8, 52
2008/03/27, 00:08:22, 4361.00, 0.00, 2.43, 2.90, 1007.0, 47.9707320, -42.0728330, , 46.70, 9.75, 51.00, 1007.98, 0.00, 0.2, 89.58, 74.65, 76.0, 285, 10.1, 43.51120, 35.86740, 14.6460, 35.8674, 43.5112, 92.40, 13.5354, 1502.98, 304.00, 301.6, 10.55, 9.9, 52
2008/03/27, 00:09:21, 4361.00, 0.00, 1.95, 2.70, 1006.9, 47.9725730, -42.0694630, , 42.90, 11.13, 53.10, 1008.13, 0.10, 2.2, 89.61, 71.48, 73.3, 280, 13.0, 43.50370, 35.86450, 14.6417, 35.8645, 43.5037, 92.80, 13.5275, 1502.95, 308.40, 304.8, 11.24, 12.5, 52
2008/03/27, 00:10:22, 4359.00, 0.00, 1.84, 2.70, 1008.0, 47.9746770, -42.0655030, , 45.70, 10.23, 46.80, 1007.35, 0.00, 0.2, 89.62, 76.47, 76.6, 282, 14.5, 43.49110, 35.86000, 14.6339, 35.8600, 43.4911, 92.80, 13.5216, 1502.92, 304.70, 307.7, 11.99, 13.9, 52
2008/03/27, 00:11:22, 4361.00, 0.00, 1.65, 2.60, 1007.1, 47.9767350, -42.0619670, , 52.50, 11.60, 53.80, 1007.91, 0.40, 0.1, 89.62, 79.09, 77.7, 280, 11.2, 43.49460, 35.85860, 14.6389, 35.8586, 43.4946, 94.30, 13.5177, 1502.91, 309.70, 299.2, 13.39, 12.2, 52
2008/03/27, 00:12:22, 4362.00, 0.00, 1.51, 2.50, 1006.9, 47.9787970, -42.0582030, , 44.40, 12.99, 50.40, 1008.26, 0.40, 0.0, 89.62, 79.04, 77.2, 286, 13.8, 43.46470, 35.85050, 14.6179, 35.8505, 43.4647, 93.30, 13.5182, 1502.90, 293.40, 307.6, 11.39, 14.0, 52
2008/03/27, 00:13:22, 4364.00, 0.00, 1.67, 2.40, 1007.4, 47.9808670, -42.0547770, , 51.00, 12.39, 53.30, 1007.80, 0.30, 0.0, 89.62, 78.49, 77.4, 272, 13.3, 43.43740, 35.84430, 14.5973, 35.8443, 43.4374, 93.00, 13.5200, 1502.90, 309.60, 296.9, 13.14, 14.6, 52
2008/03/27, 00:14:22, 4365.00, 0.00, 1.95, 2.40, 1007.0, 47.9831730, -42.0505200, , 43.10, 9.25, 52.40, 1007.54, 0.40, 0.0, 89.62, 78.34, 79.0, 282, 13.4, 43.41980, 35.83860, 14.5860, 35.8386, 43.4198, 92.10, 13.5245, 1502.91, 307.10, 307.5, 13.14, 14.4, 52
2008/03/27, 00:15:22, 4364.00, 0.00, 1.81, 2.50, 1006.9, 47.9851500, -42.0469650, , 42.30, 10.91, 49.20, 1006.88, 0.40, 0.0, 89.62, 78.09, 77.9, 269, 11.7, 43.40490, 35.83550, 14.5744, 35.8355, 43.4049, 93.00, 13.5307, 1502.92, 303.90, 291.5, 13.34, 14.6, 52
2008/03/27, 00:16:21, 4369.00, 0.00, 1.73, 2.50, 1006.8, 47.9871280, -42.0435320, , 40.30, 11.71, 51.20, 1007.59, 0.20, 0.0, 89.62, 77.69, 78.1, 276, 12.4, 43.38640, 35.82970, 14.5621, 35.8297, 43.3864, 92.10, 13.5387, 1502.94, 295.20, 296.6, 10.46, 12.4, 52
2008/03/27, 00:17:22, 4366.00, 0.00, 2.09, 2.60, 1006.8, 47.9894730, -42.0395150, , 54.80, 14.10, 50.40, 1007.37, 0.40, 0.3, 89.63, 77.87, 79.6, 282, 11.8, 43.36860, 35.82920, 14.5450, 35.8292, 43.3686, 91.80, 13.5517, 1502.98, 302.10, 297.5, 12.56, 12.6, 52
2008/03/27, 00:18:22, 4367.00, 0.00, 1.98, 2.70, 1006.7, 47.9917000, -42.0359070, , 41.70, 11.94, 50.60, 1007.24, 0.50, 0.5, 89.64, 77.72, 78.8, 305, 11.0, 43.36320, 35.82510, 14.5439, 35.8251, 43.3632, 93.00, 13.5672, 1503.03, 316.70, 324.1, 14.09, 9.4, 52
2008/03/27, 00:19:22, 4370.00, 0.00, 1.90, 2.70, 1007.3, 47.9937700, -42.0323970, , 65.10, 12.08, 47.10, 1007.19, 0.20, 0.0, 89.64, 77.02, 76.7, 281, 12.7, 43.36010, 35.82340, 14.5426, 35.8234, 43.3601, 96.10, 13.5840, 1503.08, 321.20, 307.2, 13.00, 11.9, 52
2008/03/27, 00:20:21, 4371.00, 0.00, 2.15, 2.70, 1006.2, 47.9956780, -42.0291450, , 44.60, 10.86, 51.50, 1007.03, 0.30, 0.2, 89.64, 76.62, 77.7, 285, 11.5, 43.36270, 35.82810, 14.5402, 35.8281, 43.3627, 92.40, 13.6003, 1503.14, 313.90, 305.4, 12.35, 11.0, 52
2008/03/27, 00:21:22, 4366.00, 0.00, 1.98, 2.60, 1006.8, 47.9979320, -42.0254030, , 55.10, 12.07, 48.70, 1007.15, 0.30, 0.2, 89.65, 75.16, 76.9, 285, 12.4, 43.36880, 35.83170, 14.5424, 35.8317, 43.3688, 92.80, 13.6174, 1503.20, 301.40, 294.5, 11.96, 11.2, 52
2008/03/27, 00:22:22, 4363.00, 0.00, 2.01, 2.80, 1007.3, 48.0001700, -42.0218530, , 47.60, 11.82, 49.90, 1007.22, 0.50, 0.3, 89.65, 75.66, 76.5, 292, 12.4, 43.37220, 35.83210, 14.5453, 35.8321, 43.3722, 93.30, 13.6340, 1503.26, 317.50, 313.5, 14.24, 11.6, 52
2008/03/27, 00:23:22, 4359.00, 0.00, 2.01, 2.70, 1007.5, 48.0021680, -42.0180150, , 66.10, 11.09, 48.30, 1007.19, 0.20, 1.7, 89.69, 74.80, 76.6, 291, 13.1, 43.38940, 35.83450, 14.5599, 35.8345, 43.3894, 93.00, 13.6480, 1503.30, 308.00, 309.7, 10.74, 10.2, 52
2008/03/27, 00:24:21, 4365.00, 0.00, 2.20, 2.80, 1007.3, 48.0041800, -42.0145100, , 36.90, 13.15, 49.40, 1007.45, 0.50, 0.8, 89.69, 75.53, 78.2, 281, 15.0, 43.40490, 35.83890, 14.5707, 35.8389, 43.4049, 94.00, 13.6615, 1503.35, 308.80, 301.3, 12.75, 14.1, 52
2008/03/27, 00:25:21, 4372.00, 0.00, 2.40, 2.90, 1006.7, 48.0063400, -42.0106020, , 58.20, 10.81, 47.10, 1006.68, 0.50, 0.2, 89.70, 76.62, 78.1, 288, 11.8, 43.42610, 35.84610, 14.5840, 35.8461, 43.4261, 94.80, 13.6733, 1503.40, 305.60, 306.7, 13.78, 12.6, 52
2008/03/27, 00:26:21, 4372.00, 0.00, 2.40, 3.00, 1007.3, 48.0085300, -42.0067500, , 59.10, 13.37, 49.70, 1007.19, 0.40, 0.3, 89.70, 76.27, 77.1, 287, 13.6, 43.45180, 35.85270, 14.6027, 35.8527, 43.4518, 94.60, 13.6838, 1503.44, 312.70, 306.5, 14.50, 14.7, 52
2008/03/27, 00:27:22, 4375.00, 0.00, 2.15, 2.90, 1006.6, 48.0107820, -42.0026300, , 44.10, 11.88, 50.10, 1007.79, 0.20, 0.0, 89.70, 75.11, 76.2, 275, 14.4, 43.47930, 35.85850, 14.6238, 35.8585, 43.4793, 94.60, 13.6927, 1503.47, 305.60, 298.6, 13.09, 15.5, 52
2008/03/27, 00:28:22, 4378.00, 0.00, 2.40, 2.90, 1006.9, 48.0130020, -41.9988330, , 35.40, 11.33, 47.40, 1006.85, 0.30, 0.2, 89.71, 75.01, 77.6, 288, 15.9, 43.50440, 35.86190, 14.6451, 35.8619, 43.5044, 92.40, 13.6995, 1503.50, 305.00, 311.6, 12.78, 15.4, 52
2008/03/27, 00:29:21, 4381.00, 0.00, 2.34, 2.90, 1007.1, 48.0150380, -41.9955850, , 47.50, 12.24, 47.30, 1007.12, 0.20, 0.0, 89.71, 74.93, 76.6, 285, 10.6, 43.53110, 35.86860, 14.6645, 35.8686, 43.5311, 92.10, 13.7040, 1503.52, 304.70, 296.3, 13.68, 11.1, 52
2008/03/27, 00:30:22, 4378.00, 0.00, 2.65, 3.00, 1006.7, 48.0173400, -41.9919230, , 34.60, 9.25, 47.80, 1007.51, 0.50, 0.1, 89.71, 76.69, 78.3, 292, 12.4, 43.54830, 35.86960, 14.6807, 35.8696, 43.5483, 90.30, 13.7024, 1503.52, 308.20, 310.2, 14.01, 12.9, 52
2008/03/27, 00:31:22, 4376.00, 0.00, 2.31, 3.00, 1006.9, 48.0195150, -41.9884150, , 48.40, 11.34, 46.90, 1007.15, 0.50, 0.1, 89.71, 75.28, 76.5, 284, 11.6, 43.55990, 35.87320, 14.6883, 35.8732, 43.5599, 90.60, 13.6887, 1503.48, 309.70, 301.7, 13.10, 11.2, 52
2008/03/27, 00:32:22, 4378.00, 0.00, 2.90, 3.20, 1007.2, 48.0216950, -41.9848620, , 44.90, 12.04, 45.10, 1006.65, 0.60, 0.3, 89.72, 76.77, 79.2, 279, 13.9, 43.56980, 35.87550, 14.6957, 35.8755, 43.5698, 90.00, 13.6646, 1503.40, 302.40, 293.0, 13.80, 15.1, 52
2008/03/27, 00:33:22, 4378.00, 0.00, 2.48, 3.20, 1005.7, 48.0239570, -41.9813730, , 45.90, 12.23, 45.60, 1006.92, 0.50, 0.0, 89.72, 75.71, 77.0, 292, 12.5, 43.58050, 35.87820, 14.7035, 35.8782, 43.5805, 89.40, 13.6410, 1503.33, 305.70, 308.7, 13.48, 11.9, 52
2008/03/27, 00:34:22, 4378.00, 0.00, 2.29, 3.10, 1006.9, 48.0262330, -41.9778550, , 41.60, 12.11, 46.10, 1007.20, 0.00, 0.4, 89.73, 74.65, 75.7, 303, 10.9, 43.59030, 35.87980, 14.7115, 35.8798, 43.5903, 90.00, 13.6165, 1503.25, 303.80, 308.4, 13.97, 9.7, 52
2008/03/27, 00:35:22, 4379.00, 0.00, 2.29, 2.90, 1006.2, 48.0283450, -41.9746850, , 39.60, 11.48, 47.70, 1007.04, 0.00, 0.1, 89.73, 74.20, 75.2, 302, 10.4, 43.59610, 35.88030, 14.7167, 35.8803, 43.5961, 90.00, 13.5910, 1503.17, 314.40, 312.8, 14.97, 8.2, 52
2008/03/27, 00:36:21, 4378.00, 0.00, 2.54, 2.90, 1006.6, 48.0305320, -41.9709530, , 47.50, 10.15, 49.30, 1006.79, 0.50, 0.6, 89.74, 75.36, 77.9, 289, 13.3, 43.59950, 35.88050, 14.7200, 35.8805, 43.5995, 89.40, 13.5651, 1503.09, 315.50, 312.9, 13.27, 12.7, 52
2008/03/27, 00:37:22, 4380.00, 0.00, 2.40, 3.20, 1006.6, 48.0329220, -41.9670120, , 45.90, 13.52, 45.70, 1006.47, 0.40, 0.5, 89.75, 76.21, 77.4, 307, 13.3, 43.59910, 35.88030, 14.7198, 35.8803, 43.5991, 87.90, 13.5414, 1503.01, 304.90, 324.5, 13.24, 11.4, 52
2008/03/27, 00:38:22, 4376.00, 0.00, 2.62, 3.10, 1006.2, 48.0351020, -41.9633870, , 45.60, 10.37, 44.60, 1006.91, 0.30, 0.0, 89.75, 75.64, 77.7, 287, 14.0, 43.58840, 35.87400, 14.7159, 35.8740, 43.5884, 88.80, 13.5171, 1502.93, 320.30, 310.9, 13.75, 12.7, 52
2008/03/27, 00:39:22, 4377.00, 0.00, 2.68, 3.20, 1006.8, 48.0373520, -41.9599420, , 61.50, 10.88, 49.10, 1006.77, 0.40, 0.7, 89.77, 76.34, 78.9, 303, 11.8, 43.54640, 35.85730, 14.6920, 35.8573, 43.5464, 89.40, 13.4910, 1502.82, 313.00, 319.5, 13.77, 9.6, 52
2008/03/27, 00:40:21, 4377.00, 0.00, 2.70, 3.30, 1006.9, 48.0393900, -41.9568900, , 22.90, 9.57, 42.80, 1006.71, 0.20, 1.2, 89.78, 76.24, 77.1, 293, 11.5, 43.48170, 35.83500, 14.6517, 35.8350, 43.4817, 90.60, 13.4579, 1502.69, 318.50, 309.1, 13.22, 9.1, 52
2008/03/27, 00:41:22, 4377.00, 0.00, 2.70, 3.20, 1006.8, 48.0417170, -41.9531800, , 58.30, 13.86, 48.50, 1007.01, 0.20, 0.4, 89.79, 75.53, 77.6, 283, 14.6, 43.43750, 35.82770, 14.6154, 35.8277, 43.4375, 92.10, 13.4266, 1502.57, 310.30, 300.8, 14.56, 15.1, 52
2008/03/27, 00:42:22, 4376.00, 0.00, 2.70, 3.20, 1006.7, 48.0438930, -41.9498400, , 50.60, 10.65, 47.50, 1007.08, 0.40, 0.3, 89.80, 75.81, 77.6, 285, 11.3, 43.39430, 35.81760, 14.5831, 35.8176, 43.3943, 92.10, 13.3909, 1502.45, 310.30, 306.9, 12.68, 11.2, 52
2008/03/27, 00:43:22, 4377.00, 0.00, 2.51, 3.30, 1007.3, 48.0460900, -41.9464020, , 51.50, 12.08, 45.30, 1006.76, 0.20, 0.7, 89.81, 75.66, 76.8, 295, 11.0, 43.35750, 35.80900, 14.5557, 35.8090, 43.3575, 92.80, 13.3596, 1502.33, 303.50, 302.0, 14.36, 11.2, 52
2008/03/27, 00:44:22, 4377.00, 0.00, 2.84, 3.20, 1006.0, 48.0481400, -41.9431280, , 30.30, 9.19, 45.70, 1006.63, 0.20, 0.2, 89.82, 76.14, 78.2, 287, 13.8, 43.30870, 35.79750, 14.5193, 35.7975, 43.3087, 94.30, 13.3327, 1502.23, 311.80, 309.2, 14.38, 14.1, 52
2008/03/27, 00:45:22, 4377.00, 0.00, 2.34, 3.10, 1006.4, 48.0503080, -41.9397330, , 45.60, 11.70, 46.50, 1006.91, 0.10, 0.3, 89.82, 73.59, 75.8, 284, 13.1, 43.27690, 35.79160, 14.4938, 35.7916, 43.2769, 95.20, 13.3110, 1502.15, 305.20, 300.6, 15.48, 14.5, 52
2008/03/27, 00:46:22, 4376.00, 0.00, 2.45, 3.10, 1007.1, 48.0525950, -41.9361930, , 49.90, 11.20, 49.80, 1007.09, 0.10, 0.4, 89.83, 73.59, 75.6, 293, 11.1, 43.24630, 35.78340, 14.4721, 35.7834, 43.2463, 98.20, 13.2962, 1502.10, 308.70, 308.6, 13.63, 10.4, 52
2008/03/27, 00:47:21, 4378.00, 0.00, 2.43, 3.00, 1006.9, 48.0546100, -41.9330080, , 37.30, 10.99, 51.90, 1006.52, 0.00, 0.2, 89.83, 73.13, 74.5, 283, 11.4, 43.20950, 35.77180, 14.4477, 35.7718, 43.2095, 98.80, 13.2872, 1502.05, 314.50, 302.9, 12.81, 10.3, 52
2008/03/27, 00:48:21, 4378.00, 0.00, 2.56, 3.00, 1006.9, 48.0566530, -41.9295050, , 54.90, 13.72, 48.40, 1007.00, 0.30, 0.3, 89.84, 73.34, 76.5, 303, 9.3, 43.16510, 35.75890, 14.4172, 35.7589, 43.1651, 98.50, 13.2811, 1502.02, 304.60, 303.9, 14.33, 9.1, 52
2008/03/27, 00:49:22, 4377.00, 0.00, 2.76, 3.30, 1007.3, 48.0588100, -41.9260680, , 49.30, 10.63, 48.40, 1007.30, 0.50, 0.2, 89.84, 74.70, 77.9, 271, 10.9, 43.08860, 35.73360, 14.3678, 35.7336, 43.0886, 99.50, 13.2773, 1501.98, 313.80, 290.8, 13.43, 12.4, 52
2008/03/27, 00:50:22, 4375.00, 0.00, 2.93, 3.50, 1006.8, 48.0610720, -41.9225600, , 49.40, 12.43, 50.80, 1007.14, 0.50, 0.1, 89.84, 75.71, 78.2, 292, 11.9, 43.03060, 35.72100, 14.3232, 35.7210, 43.0306, 98.20, 13.2788, 1501.96, 304.90, 308.5, 12.40, 11.3, 52
2008/03/27, 00:51:22, 4379.00, 0.00, 2.93, 3.50, 1006.9, 48.0632680, -41.9191570, , 49.50, 13.17, 46.20, 1007.26, 0.40, 0.7, 89.86, 74.91, 76.4, 289, 14.0, 42.99100, 35.71450, 14.2904, 35.7145, 42.9910, 99.20, 13.2877, 1501.98, 307.70, 304.9, 14.84, 14.1, 52
2008/03/27, 00:52:22, 4377.00, 0.00, 2.93, 3.40, 1007.1, 48.0656400, -41.9155250, , 45.80, 13.23, 49.60, 1007.03, 0.30, 0.4, 89.87, 74.32, 76.0, 308, 11.8, 42.97120, 35.71300, 14.2722, 35.7130, 42.9712, 101.90, 13.3059, 1502.04, 308.90, 315.3, 15.32, 9.7, 52
2008/03/27, 00:53:22, 4374.00, 0.00, 2.79, 3.30, 1007.1, 48.0676800, -41.9122870, , 34.10, 13.22, 51.10, 1007.45, 0.50, 0.3, 89.87, 72.68, 74.4, 278, 14.6, 42.94700, 35.71000, 14.2512, 35.7100, 42.9470, 100.70, 13.3265, 1502.11, 308.00, 301.1, 13.11, 15.7, 52
2008/03/27, 00:54:21, 4377.00, 0.00, 2.65, 3.40, 1007.6, 48.0695180, -41.9090650, , 41.50, 11.66, 41.00, 1007.26, 0.40, 1.8, 89.90, 72.50, 74.4, 279, 13.1, 42.94080, 35.71400, 14.2407, 35.7140, 42.9408, 101.90, 13.3475, 1502.18, 290.70, 292.0, 11.76, 13.8, 52
2008/03/27, 00:55:22, 4375.00, 0.00, 2.59, 3.30, 1006.4, 48.0719380, -41.9056070, , 42.30, 13.44, 48.70, 1006.92, 0.30, 0.0, 89.90, 72.04, 73.8, 272, 11.7, 42.94300, 35.72090, 14.2354, 35.7209, 42.9430, 100.70, 13.3639, 1502.24, 295.60, 291.8, 11.93, 13.7, 52
2008/03/27, 00:56:22, 4379.00, 0.00, 2.81, 3.40, 1007.0, 48.0742950, -41.9021670, , 48.60, 10.70, 47.40, 1007.26, 0.30, 0.0, 89.90, 73.51, 75.3, 279, 13.5, 42.95090, 35.72160, 14.2426, 35.7216, 42.9509, 100.70, 13.3773, 1502.28, 298.30, 303.9, 10.32, 13.2, 52
2008/03/27, 00:57:22, 4378.00, 0.00, 2.81, 3.40, 1006.3, 48.0766200, -41.8986870, , 41.10, 14.12, 46.90, 1007.50, 0.30, 0.0, 89.90, 74.12, 76.1, 283, 12.5, 42.95400, 35.72420, 14.2428, 35.7242, 42.9540, 98.50, 13.3880, 1502.32, 299.30, 299.2, 12.23, 12.5, 52
2008/03/27, 00:58:21, 4378.00, 0.00, 3.15, 3.60, 1007.0, 48.0786970, -41.8954930, , 51.70, 12.30, 47.80, 1006.66, 0.50, 0.9, 89.92, 75.53, 77.2, 275, 13.8, 42.96790, 35.73390, 14.2463, 35.7339, 42.9679, 98.00, 13.3968, 1502.36, 299.50, 296.0, 12.85, 15.3, 52
2008/03/27, 00:59:22, 4378.00, 0.00, 2.93, 3.60, 1006.4, 48.0809900, -41.8918820, , 44.40, 11.42, 47.90, 1007.40, 0.30, 0.8, 89.93, 74.17, 75.7, 277, 12.6, 42.99980, 35.74700, 14.2643, 35.7470, 42.9998, 97.30, 13.4051, 1502.40, 301.00, 296.3, 12.39, 13.7, 52
2008/03/27, 01:00:22, 4381.00, 0.00, 2.73, 3.40, 1007.2, 48.0832970, -41.8884670, , 46.70, 9.69, 48.30, 1008.01, 0.00, 0.2, 89.94, 72.14, 73.5, 284, 13.0, 43.04760, 35.76430, 14.2935, 35.7643, 43.0476, 94.30, 13.4138, 1502.45, 299.40, 308.1, 10.52, 12.4, 52
2008/03/27, 01:01:22, 4379.00, 0.00, 3.01, 3.50, 1006.6, 48.0854600, -41.8850100, , 44.70, 11.53, 46.30, 1007.87, 0.30, 0.5, 89.95, 73.74, 76.0, 288, 12.0, 43.09840, 35.77680, 14.3310, 35.7768, 43.0984, 93.30, 13.4247, 1502.50, 303.30, 302.3, 13.14, 12.3, 52
2008/03/27, 01:02:22, 4378.00, 0.00, 2.93, 3.50, 1006.8, 48.0876720, -41.8816580, , 40.60, 12.96, 45.60, 1007.09, 0.40, 0.3, 89.95, 72.98, 74.3, 283, 11.3, 43.13100, 35.78140, 14.3587, 35.7814, 43.1310, 95.80, 13.4372, 1502.55, 303.10, 292.5, 14.17, 12.7, 52
2008/03/27, 01:03:22, 4381.00, 0.00, 3.09, 3.50, 1007.4, 48.0896680, -41.8784700, , 66.90, 13.43, 42.80, 1008.20, 0.20, 1.3, 89.97, 73.23, 75.7, 290, 9.7, 43.14870, 35.78500, 14.3726, 35.7850, 43.1487, 93.30, 13.4526, 1502.60, 300.10, 297.2, 15.18, 12.5, 52
2008/03/27, 01:04:22, 4381.00, 0.00, 2.87, 3.50, 1006.4, 48.0919320, -41.8750420, , 56.70, 12.27, 46.60, 1007.21, 0.30, 0.2, 89.98, 70.82, 72.8, 287, 11.6, 43.15230, 35.78160, 14.3798, 35.7816, 43.1523, 93.00, 13.4704, 1502.66, 315.70, 300.3, 12.19, 10.0, 52
2008/03/27, 01:05:22, 4382.00, 0.00, 3.18, 3.60, 1007.4, 48.0941500, -41.8717020, , 57.80, 12.02, 45.50, 1006.89, 0.40, 0.1, 89.98, 72.47, 75.0, 319, 15.9, 43.15880, 35.78090, 14.3871, 35.7809, 43.1588, 94.00, 13.4954, 1502.74, 308.40, 345.5, 11.30, 10.7, 52
2008/03/27, 01:06:22, 4380.00, 0.00, 2.90, 3.60, 1007.1, 48.0964070, -41.8685120, , 22.80, 11.89, 44.20, 1006.92, 0.30, 0.2, 89.98, 70.41, 71.2, 304, 13.6, 43.16240, 35.77920, 14.3925, 35.7792, 43.1624, 93.60, 13.5267, 1502.84, 324.50, 321.9, 15.62, 11.9, 52
2008/03/27, 01:07:22, 4381.00, 0.00, 3.23, 3.60, 1006.7, 48.0985430, -41.8650530, , 47.70, 11.33, 43.80, 1008.09, 0.40, 0.4, 89.99, 71.56, 74.0, 313, 17.0, 43.17530, 35.78100, 14.4036, 35.7810, 43.1753, 93.60, 13.5562, 1502.94, 319.10, 337.1, 14.24, 13.1, 52
2008/03/27, 01:08:22, 4383.00, 0.00, 2.87, 3.60, 1006.9, 48.1007980, -41.8617120, , 41.50, 9.59, 50.60, 1007.26, 0.20, 0.3, 90.00, 69.90, 71.7, 310, 16.5, 43.17980, 35.78150, 14.4075, 35.7815, 43.1798, 94.00, 13.5937, 1503.06, 336.90, 344.8, 15.99, 14.0, 52
2008/03/27, 01:09:21, 4382.00, 0.00, 2.76, 3.60, 1007.0, 48.1026050, -41.8586300, , 55.30, 10.64, 45.70, 1007.26, 0.00, 0.3, 90.00, 69.38, 70.6, 293, 12.4, 43.19450, 35.78650, 14.4168, 35.7865, 43.1945, 94.60, 13.6315, 1503.19, 319.50, 311.0, 16.31, 12.6, 52
2008/03/27, 01:10:22, 4384.00, 0.00, 2.87, 3.50, 1007.4, 48.1046850, -41.8550380, , 53.50, 9.32, 47.70, 1007.64, 0.00, 6.7, 90.11, 69.79, 71.3, 280, 13.1, 43.21680, 35.79190, 14.4333, 35.7919, 43.2168, 91.20, 13.6660, 1503.31, 318.80, 303.5, 14.64, 13.7, 52
2008/03/27, 01:11:22, 4383.00, 0.00, 2.84, 3.40, 1007.4, 48.1065980, -41.8518950, , 39.90, 11.43, 45.80, 1008.02, 0.10, 1.7, 90.14, 70.05, 71.5, 295, 10.1, 43.23830, 35.79860, 14.4476, 35.7986, 43.2383, 91.20, 13.6985, 1503.42, 310.80, 307.8, 14.36, 10.1, 52
2008/03/27, 01:12:22, 4381.00, 0.00, 3.04, 3.40, 1007.2, 48.1086150, -41.8486300, , 36.40, 10.62, 45.20, 1007.45, 0.30, 0.5, 90.15, 70.79, 72.5, 289, 12.1, 43.27220, 35.80680, 14.4727, 35.8068, 43.2722, 89.70, 13.7258, 1503.52, 312.90, 308.8, 13.99, 12.3, 52
2008/03/27, 01:13:22, 4384.00, 0.00, 3.09, 3.50, 1007.3, 48.1107280, -41.8454320, , 52.70, 9.41, 48.90, 1007.02, 0.30, 0.3, 90.16, 71.23, 72.9, 294, 14.6, 43.31200, 35.81990, 14.4984, 35.8199, 43.3120, 87.90, 13.7479, 1503.61, 302.40, 313.2, 10.83, 12.1, 52
2008/03/27, 01:14:22, 4385.00, 0.00, 2.84, 3.60, 1006.8, 48.1127850, -41.8420150, , 55.70, 11.40, 43.60, 1007.75, 0.10, 0.1, 90.16, 69.49, 70.2, 280, 13.1, 43.36790, 35.83880, 14.5338, 35.8388, 43.3679, 84.20, 13.7642, 1503.68, 309.10, 295.2, 13.17, 12.9, 52
2008/03/27, 01:15:22, 4382.00, 0.00, 2.93, 3.50, 1006.9, 48.1150600, -41.8384750, , 52.60, 13.05, 50.60, 1007.36, 0.20, 0.9, 90.18, 69.51, 70.5, 301, 10.8, 43.43560, 35.85920, 14.5794, 35.8592, 43.4356, 83.20, 13.7776, 1503.74, 300.70, 309.0, 12.77, 9.8, 52
2008/03/27, 01:16:21, 4383.00, 0.00, 2.81, 3.40, 1006.9, 48.1170300, -41.8352270, , 50.10, 11.66, 45.20, 1008.00, -0.10, 0.1, 90.18, 67.94, 68.9, 283, 11.2, 43.49830, 35.87470, 14.6252, 35.8747, 43.4983, 81.50, 13.7896, 1503.81, 307.30, 296.4, 13.63, 12.2, 52
2008/03/27, 01:17:22, 4383.00, 0.00, 2.90, 3.40, 1006.8, 48.1194230, -41.8314500, , 54.10, 12.85, 47.90, 1007.30, 0.10, 0.3, 90.19, 69.10, 70.3, 282, 13.3, 43.55140, 35.88280, 14.6694, 35.8828, 43.5514, 79.90, 13.7985, 1503.85, 313.80, 304.0, 14.37, 13.8, 52
2008/03/27, 01:18:22, 4385.00, 0.00, 2.90, 3.30, 1007.5, 48.1212330, -41.8282220, , 69.30, 12.96, 44.00, 1007.60, 0.10, 0.0, 90.19, 68.10, 70.1, 279, 10.8, 43.60280, 35.89520, 14.7073, 35.8952, 43.6028, 80.20, 13.8057, 1503.88, 298.90, 294.6, 14.21, 14.4, 52
2008/03/27, 01:19:22, 4386.00, 0.00, 3.09, 3.30, 1007.0, 48.1233470, -41.8248570, , 49.20, 11.49, 46.80, 1007.82, 0.40, 0.5, 90.20, 68.84, 71.8, 285, 10.7, 43.64480, 35.90080, 14.7431, 35.9008, 43.6448, 81.50, 13.8125, 1503.92, 301.40, 298.3, 11.74, 11.3, 52
2008/03/27, 01:20:22, 4388.00, 0.00, 2.95, 3.40, 1006.9, 48.1257380, -41.8210120, , 47.20, 13.34, 49.10, 1007.25, 0.20, 0.2, 90.20, 68.69, 71.5, 303, 7.7, 43.67080, 35.90370, 14.7658, 35.9037, 43.6708, 82.70, 13.8192, 1503.94, 296.80, 284.7, 12.47, 7.3, 52
2008/03/27, 01:21:22, 4386.00, 0.00, 3.51, 3.60, 1006.9, 48.1279100, -41.8173320, , 53.80, 14.12, 45.80, 1007.40, 0.60, 0.2, 90.21, 71.15, 74.4, 294, 11.6, 43.67960, 35.90140, 14.7771, 35.9014, 43.6796, 81.70, 13.8261, 1503.96, 305.60, 307.5, 11.35, 9.8, 52
2008/03/27, 01:22:22, 4385.00, 0.00, 3.15, 3.60, 1007.5, 48.1299070, -41.8141550, , 47.30, 9.92, 47.30, 1007.42, 0.10, 0.4, 90.21, 68.82, 71.1, 302, 12.8, 43.68680, 35.90140, 14.7844, 35.9014, 43.6868, 82.70, 13.8324, 1503.98, 313.30, 323.6, 13.01, 11.2, 52
2008/03/27, 01:23:22, 4389.00, 0.00, 3.01, 3.60, 1006.8, 48.1321550, -41.8103420, , 57.30, 8.94, 47.40, 1007.00, 0.20, 0.1, 90.22, 69.41, 70.7, 312, 14.6, 43.68590, 35.90180, 14.7831, 35.9018, 43.6859, 83.60, 13.8367, 1503.99, 325.10, 336.5, 14.22, 11.5, 52
2008/03/27, 01:24:22, 4386.00, 0.00, 2.93, 3.50, 1006.5, 48.1341620, -41.8070020, , 40.30, 10.37, 45.60, 1008.17, 0.10, 0.2, 90.22, 67.71, 68.9, 306, 11.1, 43.69080, 35.90220, 14.7874, 35.9022, 43.6908, 84.20, 13.8404, 1504.01, 319.40, 317.3, 14.49, 9.6, 52
2008/03/27, 01:25:22, 4390.00, 0.00, 2.87, 3.40, 1007.9, 48.1363030, -41.8034620, , 57.90, 12.19, 42.70, 1007.78, 0.10, 0.0, 90.22, 66.32, 67.3, 311, 14.2, 43.69450, 35.90130, 14.7921, 35.9013, 43.6945, 83.90, 13.8427, 1504.02, 315.00, 330.0, 12.81, 10.7, 52
2008/03/27, 01:26:22, 4389.00, 0.00, 2.90, 3.40, 1006.5, 48.1384920, -41.8000720, , 47.70, 10.76, 48.80, 1007.70, 0.20, 0.9, 90.24, 67.43, 69.1, 311, 12.3, 43.70180, 35.90160, 14.7990, 35.9016, 43.7018, 82.40, 13.8448, 1504.02, 325.80, 329.9, 15.98, 11.0, 52
2008/03/27, 01:27:22, 4391.00, 0.00, 2.76, 3.30, 1006.8, 48.1404270, -41.7964950, , 61.30, 11.85, 42.70, 1007.47, 0.10, 0.0, 90.24, 64.63, 65.7, 294, 12.6, 43.70370, 35.90220, 14.8004, 35.9022, 43.7037, 82.00, 13.8473, 1504.03, 326.80, 312.4, 12.49, 10.4, 52
2008/03/27, 01:28:22, 4391.00, 0.00, 2.73, 3.30, 1006.9, 48.1425550, -41.7930880, , 46.60, 11.74, 45.50, 1007.82, 0.10, 0.0, 90.24, 63.95, 66.3, 318, 17.9, 43.70880, 35.90490, 14.8024, 35.9049, 43.7088, 81.70, 13.8505, 1504.04, 319.40, 341.9, 15.46, 15.6, 52
2008/03/27, 01:29:22, 4397.00, 0.00, 2.95, 3.40, 1006.9, 48.1445520, -41.7896120, , 54.60, 11.20, 47.40, 1007.68, 0.30, 0.1, 90.24, 66.44, 68.5, 315, 13.2, 43.71600, 35.90590, 14.8086, 35.9059, 43.7160, 80.80, 13.8534, 1504.05, 326.40, 329.5, 13.77, 10.0, 52
2008/03/27, 01:30:22, 4392.00, 0.00, 2.93, 3.50, 1006.8, 48.1463130, -41.7864420, , 31.60, 10.78, 48.80, 1007.88, 0.30, 0.0, 90.24, 67.79, 69.2, 313, 15.9, 43.72260, 35.90410, 14.8170, 35.9041, 43.7226, 79.90, 13.8562, 1504.06, 337.20, 344.6, 12.60, 11.6, 52